| time (UTC) | temp F | wind direction | speed MPH | gust MPH | rain 1hr in | rain 24hr in | rain mn in | humidity % | barometer mb |
| 20260903091134 | 57 | 288 | 4.0 | 10.0 | 0.00 | 0.00 | 0.00 | 60 | 857.9 |
| 20260903090521 | 57 | 312 | 5.0 | 15.0 | 0.00 | 0.00 | 0.00 | 61 | 858.0 |
| 20260903085521 | 57 | 310 | 5.0 | 17.0 | 0.00 | 0.00 | 0.00 | 60 | 858.2 |
| 20260903084133 | 57 | 310 | 7.0 | 17.0 | 0.00 | 0.00 | 0.00 | 60 | 858.1 |
| 20260903083521 | 56 | 314 | 8.0 | 19.0 | 0.00 | 0.00 | 0.00 | 61 | 858.0 |
| 20260903082521 | 56 | 317 | 8.0 | 17.0 | 0.00 | 0.00 | 0.00 | 62 | 857.9 |
| 20260903081134 | 56 | 312 | 6.0 | 15.0 | 0.00 | 0.00 | 0.00 | 61 | 857.9 |
| 20260903080521 | 55 | 307 | 7.0 | 15.0 | 0.00 | 0.00 | 0.00 | 63 | 857.9 |
| 20260903075521 | 55 | 314 | 8.0 | 16.0 | 0.00 | 0.00 | 0.00 | 62 | 857.8 |
| 20260903074134 | 55 | 316 | 5.0 | 13.0 | 0.00 | 0.00 | 0.00 | 62 | 857.8 |
| 20260903073520 | 55 | 323 | 5.0 | 12.0 | 0.00 | 0.00 | 0.00 | 64 | 857.8 |
| 20260903072520 | 54 | 304 | 4.0 | 10.0 | 0.00 | 0.00 | 0.00 | 65 | 857.8 |
| 20260903071134 | 54 | 313 | 5.0 | 11.0 | 0.00 | 0.00 | 0.00 | 65 | 857.8 |
| 20260903070521 | 54 | 325 | 9.0 | 16.0 | 0.00 | 0.00 | 0.00 | 63 | 857.7 |
| 20260903065521 | 54 | 325 | 9.0 | 14.0 | 0.00 | 0.00 | 0.00 | 63 | 857.7 |
| 20260903064133 | 54 | 317 | 7.0 | 18.0 | 0.00 | 0.00 | 0.00 | 65 | 857.8 |
| 20260903063520 | 53 | 326 | 5.0 | 15.0 | 0.00 | 0.00 | 0.00 | 64 | 857.8 |
| 20260903062521 | 54 | 317 | 5.0 | 11.0 | 0.00 | 0.00 | 0.00 | 65 | 857.6 |
| 20260903061134 | 53 | 319 | 5.0 | 9.0 | 0.00 | 0.00 | 0.00 | 65 | 857.7 |
| 20260903060521 | 53 | 323 | 6.0 | 13.0 | 0.00 | 0.00 | 0.00 | 65 | 857.6 |
| 20260903055520 | 53 | 316 | 8.0 | 14.0 | 0.00 | 0.00 | 0.00 | 65 | 857.6 |
| 20260903054133 | 53 | 317 | 6.0 | 11.0 | 0.00 | 0.00 | 0.00 | 65 | 857.6 |
| 20260903053520 | 53 | 323 | 10.0 | 15.0 | 0.00 | 0.00 | 0.00 | 64 | 857.5 |
| 20260903052521 | 54 | 326 | 9.0 | 18.0 | 0.00 | 0.00 | 0.00 | 63 | 857.5 |
| 20260903051134 | 53 | 329 | 9.0 | 18.0 | 0.00 | 0.00 | 0.00 | 64 | 857.3 |
| 20260903050520 | 53 | 334 | 9.0 | 14.0 | 0.00 | 0.00 | 0.00 | 63 | 857.3 |
| 20260903045521 | 53 | 326 | 8.0 | 15.0 | 0.00 | 0.00 | 0.00 | 63 | 857.2 |
| 20260903044133 | 53 | 315 | 6.0 | 14.0 | 0.00 | 0.00 | 0.00 | 63 | 857.2 |
| 20260903043520 | 54 | 325 | 10.0 | 18.0 | 0.00 | 0.00 | 0.00 | 62 | 857.1 |
| 20260903042521 | 53 | 324 | 8.0 | 15.0 | 0.00 | 0.00 | 0.00 | 62 | 857.2 |
| 20260903041133 | 53 | 321 | 6.0 | 16.0 | 0.00 | 0.00 | 0.00 | 63 | 857.2 |
| 20260903040521 | 53 | 324 | 6.0 | 12.0 | 0.00 | 0.00 | 0.00 | 63 | 857.2 |
| 20260903035521 | 52 | 323 | 6.0 | 10.0 | 0.00 | 0.00 | 0.00 | 64 | 857.2 |
| 20260903034520 | 53 | 326 | 6.0 | 10.0 | 0.00 | 0.00 | 0.00 | 64 | 857.3 |
| 20260903033520 | 53 | 321 | 5.0 | 10.0 | 0.00 | 0.00 | 0.00 | 64 | 857.2 |
| 20260903032521 | 52 | 311 | 5.0 | 11.0 | 0.00 | 0.00 | 0.00 | 65 | 857.3 |
| 20260903031134 | 52 | 316 | 5.0 | 9.0 | 0.00 | 0.00 | 0.00 | 64 | 857.3 |
| 20260903030521 | 52 | 321 | 5.0 | 10.0 | 0.00 | 0.00 | 0.00 | 64 | 857.3 |
| 20260903025521 | 52 | 317 | 4.0 | 8.0 | 0.00 | 0.00 | 0.00 | 64 | 857.3 |
| 20260903024521 | 53 | 319 | 4.0 | 7.0 | 0.00 | 0.00 | 0.00 | 63 | 857.3 |
| 20260903023521 | 53 | 325 | 4.0 | 7.0 | 0.00 | 0.00 | 0.00 | 62 | 857.3 |
| 20260903022521 | 52 | 320 | 3.0 | 6.0 | 0.00 | 0.00 | 0.00 | 64 | 857.3 |
| 20260903021133 | 53 | 328 | 4.0 | 7.0 | 0.00 | 0.00 | 0.00 | 64 | 857.5 |
| 20260903020521 | 53 | 322 | 4.0 | 6.0 | 0.00 | 0.00 | 0.00 | 64 | 857.5 |
| 20260903015521 | 53 | 326 | 4.0 | 6.0 | 0.00 | 0.00 | 0.00 | 64 | 857.5 |
| 20260903014133 | 53 | 332 | 4.0 | 6.0 | 0.00 | 0.00 | 0.00 | 64 | 857.6 |
| 20260903013520 | 53 | 337 | 3.0 | 5.0 | 0.00 | 0.00 | 0.00 | 65 | 857.6 |
| 20260903012520 | 53 | 318 | 3.0 | 4.0 | 0.00 | 0.00 | 0.00 | 65 | 857.6 |
| 20260903011134 | 53 | 318 | 3.0 | 6.0 | 0.00 | 0.00 | 0.00 | 66 | 857.6 |
| 20260903010521 | 53 | 318 | 2.0 | 4.0 | 0.00 | 0.00 | 0.00 | 67 | 857.6 |
| 20260903005521 | 53 | 317 | 2.0 | 5.0 | 0.00 | 0.00 | 0.00 | 68 | 857.6 |
| 20260903004134 | 53 | 306 | 3.0 | 9.0 | 0.00 | 0.00 | 0.00 | 67 | 857.5 |
| 20260903003521 | 53 | 315 | 4.0 | 9.0 | 0.00 | 0.00 | 0.00 | 65 | 857.6 |
| 20260903002521 | 53 | 312 | 5.0 | 15.0 | 0.00 | 0.00 | 0.00 | 65 | 857.6 |
| 20260903001533 | 53 | 316 | 5.0 | 12.0 | 0.00 | 0.00 | 0.00 | 64 | 857.6 |
| 20260903000520 | 53 | 308 | 4.0 | 8.0 | 0.00 | 0.00 | 0.00 | 66 | 857.6 |
| 20260902235520 | 53 | 319 | 5.0 | 7.0 | 0.00 | 0.00 | 0.00 | 67 | 857.6 |
| 20260902234134 | 53 | 321 | 4.0 | 6.0 | 0.00 | 0.00 | 0.00 | 69 | 857.6 |
| 20260902233520 | 53 | 309 | 3.0 | 5.0 | 0.00 | 0.00 | 0.00 | 70 | 857.6 |
| 20260902232520 | 54 | 308 | 2.0 | 4.0 | 0.00 | 0.00 | 0.00 | 68 | 857.5 |
| 20260902231521 | 54 | 302 | 3.0 | 6.0 | 0.00 | 0.00 | 0.00 | 69 | 857.5 |
| 20260902230520 | 53 | 305 | 3.0 | 6.0 | 0.00 | 0.00 | 0.00 | 71 | 857.4 |
| 20260902225521 | 54 | 306 | 4.0 | 9.0 | 0.00 | 0.00 | 0.00 | 70 | 857.4 |
| 20260902224134 | 54 | 330 | 3.0 | 7.0 | 0.00 | 0.00 | 0.00 | 70 | 857.4 |
| 20260902223521 | 54 | 321 | 3.0 | 6.0 | 0.00 | 0.00 | 0.00 | 72 | 857.4 |
| 20260902222521 | 53 | 330 | 2.0 | 4.0 | 0.00 | 0.00 | 0.00 | 76 | 857.2 |
| 20260902221134 | 53 | 358 | 1.0 | 4.0 | 0.00 | 0.00 | 0.00 | 77 | 857.3 |
| 20260902220520 | 53 | 10 | 2.0 | 5.0 | 0.00 | 0.00 | 0.00 | 77 | 857.3 |
| 20260902215521 | 53 | 20 | 3.0 | 4.0 | 0.00 | 0.00 | 0.00 | 76 | 857.3 |
| 20260902214134 | 53 | 357 | 1.0 | 3.0 | 0.00 | 0.00 | 0.00 | 75 | 857.3 |
| 20260902213520 | 53 | 344 | 2.0 | 4.0 | 0.00 | 0.00 | 0.00 | 75 | 857.3 |
| 20260902211134 | 53 | 348 | 3.0 | 4.0 | 0.00 | 0.00 | 0.00 | 73 | 857.2 |
| 20260902210521 | 53 | 340 | 4.0 | 5.0 | 0.00 | 0.00 | 0.00 | 75 | 857.3 |
| 20260902205521 | 52 | 318 | 2.0 | 5.0 | 0.00 | 0.00 | 0.00 | 76 | 857.3 |
| 20260902204135 | 52 | 3 | 4.0 | 7.0 | 0.00 | 0.00 | 0.00 | 77 | 857.3 |
| 20260902203520 | 53 | 359 | 3.0 | 5.0 | 0.00 | 0.00 | 0.00 | 73 | 857.3 |
| 20260902202521 | 53 | 340 | 3.0 | 5.0 | 0.00 | 0.00 | 0.00 | 73 | 857.3 |
| 20260902201134 | 53 | 344 | 3.0 | 5.0 | 0.00 | 0.00 | 0.00 | 72 | 857.3 |
| 20260902200521 | 53 | 349 | 3.0 | 5.0 | 0.00 | 0.00 | 0.00 | 73 | 857.3 |
| 20260902195521 | 53 | 349 | 5.0 | 6.0 | 0.00 | 0.00 | 0.00 | 72 | 857.3 |
| 20260902194134 | 54 | 338 | 4.0 | 6.0 | 0.00 | 0.00 | 0.00 | 70 | 857.4 |
| 20260902193521 | 54 | 331 | 3.0 | 7.0 | 0.00 | 0.00 | 0.00 | 68 | 857.2 |
| 20260902192520 | 55 | 342 | 5.0 | 7.0 | 0.00 | 0.00 | 0.00 | 67 | 857.2 |
| 20260902191134 | 54 | 348 | 4.0 | 6.0 | 0.00 | 0.00 | 0.00 | 66 | 857.1 |
| 20260902190520 | 54 | 347 | 4.0 | 6.0 | 0.00 | 0.00 | 0.00 | 67 | 857.0 |
| 20260902185521 | 54 | 319 | 2.0 | 3.0 | 0.00 | 0.00 | 0.00 | 67 | 856.8 |
| 20260902184134 | 54 | 340 | 3.0 | 5.0 | 0.00 | 0.00 | 0.00 | 66 | 856.8 |
| 20260902183521 | 54 | 352 | 3.0 | 5.0 | 0.00 | 0.00 | 0.00 | 65 | 856.7 |
| 20260902182521 | 54 | 346 | 3.0 | 5.0 | 0.00 | 0.00 | 0.00 | 66 | 856.6 |
| 20260902181134 | 54 | 299 | 2.0 | 4.0 | 0.00 | 0.00 | 0.00 | 68 | 856.5 |
| 20260902180521 | 55 | 290 | 3.0 | 6.0 | 0.00 | 0.00 | 0.00 | 65 | 856.5 |
| 20260902175521 | 56 | 303 | 3.0 | 4.0 | 0.00 | 0.00 | 0.00 | 63 | 856.3 |
| 20260902174134 | 56 | 271 | 3.0 | 5.0 | 0.00 | 0.00 | 0.00 | 63 | 856.2 |
| 20260902173520 | 57 | 271 | 1.0 | 4.0 | 0.00 | 0.00 | 0.00 | 60 | 856.0 |
| 20260902172521 | 58 | 286 | 1.0 | 4.0 | 0.00 | 0.00 | 0.00 | 59 | 855.9 |
| 20260902171134 | 59 | 319 | 2.0 | 7.0 | 0.00 | 0.00 | 0.00 | 54 | 855.8 |
| 20260902170521 | 60 | 330 | 2.0 | 8.0 | 0.00 | 0.00 | 0.00 | 54 | 855.7 |
| 20260902165521 | 60 | 328 | 3.0 | 9.0 | 0.00 | 0.00 | 0.00 | 53 | 855.7 |
| 20260902164134 | 60 | 313 | 4.0 | 9.0 | 0.00 | 0.00 | 0.00 | 51 | 855.7 |
| 20260902163521 | 61 | 331 | 2.0 | 8.0 | 0.00 | 0.00 | 0.00 | 51 | 855.6 |
| 20260902162521 | 61 | 343 | 2.0 | 9.0 | 0.00 | 0.00 | 0.00 | 50 | 855.7 |
| 20260902161134 | 61 | 18 | 4.0 | 11.0 | 0.00 | 0.00 | 0.00 | 48 | 855.6 |
| 20260902160520 | 62 | 1 | 4.0 | 11.0 | 0.00 | 0.00 | 0.00 | 48 | 855.5 |
| 20260902155521 | 63 | 327 | 2.0 | 8.0 | 0.00 | 0.00 | 0.00 | 43 | 855.6 |
| 20260902154134 | 64 | 355 | 1.0 | 9.0 | 0.00 | 0.00 | 0.00 | 46 | 855.6 |
| 20260902153521 | 63 | 312 | 4.0 | 11.0 | 0.00 | 0.00 | 0.00 | 44 | 855.7 |
| 20260902152520 | 64 | 299 | 5.0 | 15.0 | 0.00 | 0.00 | 0.00 | 39 | 855.7 |
| 20260902151134 | 63 | 296 | 6.0 | 14.0 | 0.00 | 0.00 | 0.00 | 39 | 855.7 |
| 20260902150521 | 62 | 303 | 9.0 | 20.0 | 0.00 | 0.00 | 0.00 | 36 | 855.8 |
| 20260902145521 | 62 | 316 | 12.0 | 21.0 | 0.00 | 0.00 | 0.00 | 34 | 855.7 |
| 20260902144134 | 62 | 316 | 9.0 | 19.0 | 0.00 | 0.00 | 0.00 | 34 | 855.7 |
| 20260902143520 | 62 | 323 | 9.0 | 16.0 | 0.00 | 0.00 | 0.00 | 39 | 855.7 |
| 20260902142521 | 62 | 306 | 9.0 | 19.0 | 0.00 | 0.00 | 0.00 | 39 | 855.8 |
| 20260902141134 | 63 | 295 | 7.0 | 17.0 | 0.00 | 0.00 | 0.00 | 41 | 855.7 |
| 20260902140521 | 63 | 301 | 6.0 | 15.0 | 0.00 | 0.00 | 0.00 | 39 | 855.6 |
| 20260902135521 | 62 | 307 | 6.0 | 13.0 | 0.00 | 0.00 | 0.00 | 38 | 855.7 |
| 20260902134132 | 62 | 306 | 6.0 | 16.0 | 0.00 | 0.00 | 0.00 | 37 | 855.9 |
| 20260902133521 | 62 | 329 | 5.0 | 11.0 | 0.00 | 0.00 | 0.00 | 36 | 855.8 |
| 20260902132521 | 62 | 342 | 2.0 | 9.0 | 0.00 | 0.00 | 0.00 | 37 | 855.8 |
| 20260902131134 | 63 | 47 | 3.0 | 11.0 | 0.00 | 0.00 | 0.00 | 42 | 855.8 |
| 20260902130521 | 62 | 3 | 4.0 | 11.0 | 0.00 | 0.00 | 0.00 | 46 | 856.0 |
| 20260902125521 | 64 | 312 | 3.0 | 10.0 | 0.00 | 0.00 | 0.00 | 46 | 856.0 |
| 20260902124133 | 63 | 300 | 6.0 | 15.0 | 0.00 | 0.00 | 0.00 | 44 | 856.1 |
| 20260902123521 | 63 | 297 | 6.0 | 14.0 | 0.00 | 0.00 | 0.00 | 42 | 856.1 |
| 20260902122521 | 63 | 290 | 4.0 | 11.0 | 0.00 | 0.00 | 0.00 | 42 | 856.1 |
| 20260902121134 | 63 | 268 | 6.0 | 13.0 | 0.00 | 0.00 | 0.00 | 38 | 856.2 |
| 20260902120520 | 64 | 259 | 3.0 | 11.0 | 0.00 | 0.00 | 0.00 | 43 | 856.2 |
| 20260902115520 | 62 | 282 | 4.0 | 10.0 | 0.00 | 0.00 | 0.00 | 42 | 856.3 |
| 20260902114134 | 62 | 304 | 4.0 | 13.0 | 0.00 | 0.00 | 0.00 | 44 | 856.4 |
| 20260902113521 | 63 | 272 | 4.0 | 11.0 | 0.00 | 0.00 | 0.00 | 41 | 856.3 |
| 20260902112521 | 63 | 272 | 2.0 | 9.0 | 0.00 | 0.00 | 0.00 | 42 | 856.4 |
| 20260902111134 | 62 | 265 | 2.0 | 5.0 | 0.00 | 0.00 | 0.00 | 53 | 856.4 |
| 20260902110521 | 60 | 263 | 2.0 | 5.0 | 0.00 | 0.00 | 0.00 | 53 | 856.6 |
| 20260902105520 | 61 | 280 | 2.0 | 6.0 | 0.00 | 0.00 | 0.00 | 54 | 856.6 |
| 20260902104134 | 62 | 264 | 2.0 | 5.0 | 0.00 | 0.00 | 0.00 | 57 | 856.7 |
| 20260902103521 | 58 | 283 | 4.0 | 8.0 | 0.00 | 0.00 | 0.00 | 60 | 856.8 |
| 20260902102520 | 60 | 233 | 4.0 | 6.0 | 0.00 | 0.00 | 0.00 | 58 | 856.8 |
| 20260902101134 | 58 | 283 | 4.0 | 9.0 | 0.00 | 0.00 | 0.00 | 60 | 856.9 |
| 20260902100521 | 59 | 279 | 4.0 | 8.0 | 0.00 | 0.00 | 0.00 | 59 | 856.9 |
| 20260902095521 | 57 | 289 | 5.0 | 10.0 | 0.00 | 0.00 | 0.00 | 59 | 857.0 |
| 20260902094134 | 58 | 285 | 5.0 | 10.0 | 0.00 | 0.00 | 0.00 | 60 | 857.0 |
| 20260902093521 | 58 | 279 | 3.0 | 8.0 | 0.00 | 0.00 | 0.00 | 57 | 856.9 |